Wind_Speed
8 8 7 6 6 7 7 7 7 7 7 7 6 6 6 6 5 5 5 5 5 4 4 3 3 4 4 4 5 5 5 6 5 5 5 5 5 5 5 6 6 7 7
8 7 8 7 7 7 8 8 7 7 7 7 6 7 6 6 6 6 6 5 5 4 5 4 3 4 4 4 5 5 6 6 5 5 5 5 5 5 6 6 6 6 6
8 7 7 7 7 8 8 8 7 6 7 7 6 6 6 6 6 6 6 5 5 5 5 4 4 4 4 4 4 4 5 5 5 4 4 4 5 5 7 6 6 6 6
9 8 7 7 7 8 8 7 7 7 7 7 7 7 7 6 6 6 6 5 6 5 5 5 4 3 3 4 4 5 5 5 5 6 6 6 6 5 5 5 5 5 5
9 9 9 8 8 8 8 8 7 7 8 8 7 7 7 7 7 6 6 6 6 6 5 5 4 4 4 5 5 5 5 5 6 6 7 7 7 6 5 4 5 5 5
10 9 9 9 9 9 9 8 8 8 8 8 8 8 8 7 7 6 6 5 6 6 6 5 5 4 4 5 5 5 5 6 6 7 7 7 7 7 6 6 6 6 7
10 10 9 9 9 9 9 9 8 8 8 8 8 8 8 7 6 6 5 6 6 6 6 6 5 5 6 6 6 6 6 6 7 7 7 7 7 7 7 8 8 8 9
11 10 9 9 9 10 9 9 8 9 8 8 8 8 7 7 7 6 6 6 6 6 6 6 6 7 7 7 7 7 7 7 7 7 7 7 7 8 8 8 8 9 9
11 10 10 10 10 10 9 9 9 9 8 9 9 8 7 7 7 7 6 6 6 6 6 6 7 7 7 7 7 7 8 8 8 7 7 7 8 9 9 9 9 9 10
11 10 11 10 11 11 10 10 10 9 8 9 9 8 8 7 7 7 7 6 6 7 7 7 7 7 8 7 7 7 8 8 8 8 8 8 9 9 9 10 10 10 11
11 11 12 11 11 11 10 10 10 10 9 9 9 9 8 8 8 8 7 7 7 7 7 7 7 7 7 7 7 8 8 8 8 8 9 9 9 10 10 11 11 12 12
12 12 12 12 11 11 11 11 10 10 10 9 9 9 8 8 8 8 8 7 7 7 7 7 8 7 7 8 8 8 8 9 9 9 10 10 11 11 11 12 12 13 14
13 12 12 12 12 12 12 12 11 10 10 10 9 9 10 9 9 9 8 8 8 8 8 8 8 8 8 9 9 9 10 10 11 11 12 12 12 13 13 13 14 14 15
13 13 13 13 13 13 13 12 12 11 10 11 10 11 11 11 10 9 9 9 9 9 9 9 9 9 10 10 10 11 11 12 12 13 13 13 13 14 14 14 15 15 15
14 13 13 13 13 13 12 12 12 11 11 11 12 11 12 12 11 10 10 10 10 10 10 10 10 11 11 11 12 13 13 14 14 14 13 13 14 14 15 15 15 15 16
15 15 15 14 13 13 13 12 12 12 13 13 13 13 13 12 12 11 11 11 12 12 11 11 12 12 12 13 13 14 14 14 14 15 15 15 15 15 15 16 16 16 17
16 17 16 15 14 14 14 14 13 14 14 14 14 14 14 13 13 13 13 13 13 13 13 13 14 14 14 14 15 15 15 15 15 15 16 16 16 16 16 17 17 18 19
18 17 17 16 16 15 15 15 15 15 15 15 16 16 15 14 14 14 14 14 15 15 15 15 15 15 16 16 16 16 16 16 16 17 17 17 17 17 17 18 19 20 20
18 18 17 17 17 16 16 16 16 16 16 16 16 16 16 16 16 16 16 15 16 16 16 16 16 16 17 17 17 17 17 16 16 17 17 18 18 18 19 20 20 20 20
18 18 18 18 18 17 17 17 18 18 17 17 17 17 17 17 17 17 17 17 17 17 17 17 17 17 17 17 18 18 17 17 17 18 19 19 19 19 20 20 21 21 21
19 19 19 19 19 18 18 19 19 19 18 19 19 18 18 19 19 19 19 19 19 19 19 19 19 19 19 18 18 18 18 19 20 19 19 19 20 20 21 21 22 22 23
20 20 20 20 20 20 20 20 21 21 20 20 20 19 19 20 20 20 20 21 21 21 21 20 20 20 20 20 19 19 20 20 20 20 20 20 21 21 22 23 24 24 24
22 21 21 21 20 21 21 22 22 22 22 21 21 21 21 21 21 21 22 22 22 23 23 22 22 21 21 20 20 21 21 21 21 21 22 22 23 23 23 24 25 25 25
23 23 22 21 21 22 22 22 22 23 22 22 22 22 22 23 23 23 23 24 23 23 24 23 23 22 22 22 22 22 22 23 23 24 24 24 24 24 25 25 25 26 26
24 24 23 22 22 23 23 24 23 23 23 22 22 23 23 24 24 24 24 24 25 24 24 24 24 24 23 23 24 24 24 25 25 25 26 25 25 25 25 25 26 26 26
25 25 24 24 24 24 24 24 24 24 24 23 23 24 24 25 25 24 25 25 26 26 26 26 27 27 26 25 25 25 25 25 25 26 26 26 26 26 26 26 26 26 27
Wind_Direction
330 332 329 320 320 319 319 317 318 320 319 318 316 312 307 309 310 305 301 304 298 294 291 301 304 304 302 301 309 319 317 315 308 299 298 297 297 292 290 284 281 283 283
332 327 324 321 320 324 321 319 318 317 320 320 318 314 308 304 304 300 296 297 299 292 288 294 294 299 297 297 303 310 315 322 311 301 298 295 298 295 297 295 286 286 286
326 321 315 317 317 316 316 315 317 318 319 318 318 319 317 308 306 301 292 285 287 287 285 283 282 287 291 298 303 307 310 317 318 304 302 301 303 299 300 298 296 289 286
324 321 318 316 315 313 314 313 312 310 310 311 312 316 317 311 306 300 292 289 285 282 284 282 278 280 285 295 304 310 312 315 316 315 310 304 301 297 300 302 304 300 293
318 318 313 313 315 317 316 313 307 304 303 305 308 312 313 309 305 296 287 286 276 273 278 275 274 282 287 291 298 308 318 322 323 324 324 319 314 309 312 309 312 310 304
316 313 309 307 309 313 312 309 306 302 299 300 301 304 306 304 300 293 285 279 275 274 272 267 268 276 290 296 300 307 316 317 319 322 320 317 319 319 317 315 316 314 315
312 310 307 305 306 307 308 308 304 302 299 296 296 298 300 303 299 294 284 279 273 274 273 268 272 278 286 295 301 307 312 316 318 319 318 316 315 313 312 311 313 312 314
309 308 305 306 307 308 308 306 303 299 296 292 293 295 298 303 301 295 285 283 277 274 274 274 276 278 282 288 294 298 304 309 311 313 313 314 315 313 311 311 312 313 316
307 307 308 308 305 303 303 304 302 299 294 290 290 292 296 301 300 300 292 288 286 281 280 279 279 279 285 287 291 296 299 304 306 307 308 308 308 308 309 309 309 309 310
306 306 307 308 306 302 300 300 298 294 290 289 286 287 287 290 293 295 291 289 292 290 287 285 282 280 285 286 289 296 300 302 302 302 302 304 306 306 307 307 307 306 305
307 307 310 310 309 306 300 301 300 294 289 286 286 286 283 282 287 291 287 286 289 290 289 289 285 281 284 287 291 293 300 303 302 303 304 306 307 306 306 305 305 306 306
304 306 310 311 309 306 305 302 299 292 287 283 283 285 285 285 284 286 289 288 286 287 287 290 285 283 286 290 291 293 298 301 302 301 302 304 304 304 306 306 306 305 305
301 302 306 309 308 304 302 300 297 292 284 279 280 284 284 282 280 279 284 286 287 285 284 285 283 283 284 285 290 292 298 297 296 297 298 301 302 303 303 305 306 306 305
298 298 299 303 304 302 300 299 295 289 282 280 281 283 282 278 274 273 277 281 286 287 283 279 282 282 281 282 287 291 294 296 296 294 295 297 298 300 301 304 305 305 306
296 297 299 302 303 300 299 299 294 287 280 277 277 279 281 275 271 270 272 278 282 285 286 281 283 285 282 283 285 287 290 292 293 294 294 295 298 299 299 302 304 304 305
296 297 298 300 300 299 298 296 294 288 282 277 275 275 276 273 271 270 272 277 280 282 285 283 284 285 283 283 285 288 291 291 292 293 293 295 297 300 300 299 300 303 304
293 293 295 296 297 297 296 293 291 289 285 279 275 276 276 274 272 272 273 276 277 280 283 283 282 281 283 285 287 289 290 289 291 291 292 292 294 297 300 301 301 302 303
289 293 293 292 293 294 292 289 289 289 287 283 278 275 273 272 272 272 272 275 277 279 282 283 283 282 282 284 286 289 289 288 288 289 289 289 291 295 298 300 301 301 301
288 290 291 292 291 291 290 288 288 287 286 284 280 274 271 270 270 271 271 274 276 278 282 283 283 282 282 283 285 288 287 288 289 290 290 289 291 292 294 297 300 301 302
287 289 289 290 290 288 288 288 288 286 283 282 279 274 271 268 269 270 270 272 275 278 281 283 282 281 282 283 285 285 285 286 289 290 290 290 291 292 294 297 299 301 302
286 288 289 290 289 289 288 288 286 286 284 281 279 274 271 269 268 269 269 271 274 276 278 280 281 280 279 281 283 283 283 284 287 289 289 290 292 292 294 297 299 299 301
285 287 288 289 289 288 287 288 286 285 284 282 280 275 272 270 270 270 269 271 272 274 274 277 279 280 280 280 283 284 284 285 287 289 290 290 291 294 295 296 297 299 300
284 285 286 287 288 288 286 287 286 284 283 281 279 276 273 272 273 272 271 271 272 274 273 275 277 278 278 279 281 283 285 285 286 287 288 290 292 293 294 296 297 298 300
283 284 284 285 287 287 286 286 286 285 282 280 278 275 273 273 273 273 272 270 270 272 272 274 275 276 277 277 279 281 283 283 285 286 287 288 289 291 292 293 295 297 299
282 282 283 283 285 286 286 285 286 285 282 279 278 276 275 275 273 273 272 270 270 271 272 272 274 276 276 277 278 278 280 282 282 284 286 286 288 290 291 293 294 295 296
280 281 281 282 283 285 285 285 285 284 281 279 278 277 276 274 273 271 271 270 269 270 271 272 273 274 274 276 277 277 279 281 282 284 287 287 287 289 291 291 293 295 297
Height
5864 5864 5863 5863 5862 5861 5861 5860 5860 5859 5859 5859 5859 5858 5858 5858 5858 5858 5858 5858 5858 5858 5858 5858 5858 5858 5858 5857 5857 5857 5856 5856 5855 5854 5854 5854 5854 5854 5854 5854 5854 5854 5854
5864 5863 5862 5862 5861 5861 5860 5859 5859 5859 5858 5858 5858 5858 5857 5857 5857 5857 5857 5857 5857 5857 5857 5857 5857 5857 5857 5857 5856 5856 5856 5855 5854 5854 5854 5854 5854 5853 5853 5853 5853 5852 5852
5863 5862 5862 5861 5860 5860 5859 5859 5858 5858 5857 5857 5857 5857 5856 5856 5856 5856 5856 5856 5856 5856 5856 5856 5856 5856 5856 5856 5856 5855 5855 5855 5854 5853 5854 5853 5853 5852 5852 5852 5851 5851 5851
5862 5861 5861 5860 5859 5859 5858 5857 5857 5857 5857 5856 5856 5856 5855 5855 5855 5855 5855 5854 5855 5855 5855 5855 5855 5855 5855 5855 5855 5854 5854 5854 5853 5852 5852 5852 5852 5851 5851 5851 5850 5850 5850
5861 5860 5860 5859 5858 5858 5857 5856 5856 5856 5855 5855 5855 5854 5854 5854 5854 5854 5854 5853 5853 5854 5854 5854 5854 5854 5854 5854 5854 5854 5853 5853 5852 5852 5851 5851 5850 5850 5850 5850 5850 5849 5849
5860 5859 5858 5858 5857 5857 5856 5855 5855 5854 5854 5854 5853 5853 5853 5853 5853 5853 5853 5852 5853 5853 5853 5853 5853 5853 5853 5853 5853 5853 5852 5852 5852 5851 5850 5850 5849 5849 5849 5848 5848 5848 5848
5858 5858 5857 5856 5856 5855 5854 5854 5853 5852 5852 5852 5852 5852 5851 5851 5851 5851 5851 5851 5851 5851 5852 5852 5852 5852 5852 5852 5852 5852 5852 5851 5851 5850 5849 5849 5848 5848 5848 5848 5847 5847 5846
5857 5856 5855 5854 5854 5853 5852 5852 5851 5851 5850 5850 5850 5850 5850 5850 5850 5850 5850 5850 5850 5850 5850 5850 5850 5851 5851 5851 5851 5851 5850 5850 5849 5849 5848 5848 5847 5847 5847 5846 5846 5845 5844
5855 5854 5853 5852 5852 5851 5850 5850 5849 5849 5848 5848 5848 5848 5848 5848 5848 5848 5848 5848 5848 5848 5848 5849 5849 5849 5849 5849 5849 5849 5849 5848 5848 5847 5847 5846 5846 5846 5845 5844 5844 5844 5843
5853 5852 5851 5851 5850 5849 5848 5848 5847 5846 5846 5846 5846 5846 5846 5847 5847 5847 5847 5847 5847 5847 5847 5847 5847 5847 5848 5848 5848 5847 5847 5847 5846 5846 5845 5845 5844 5844 5843 5842 5842 5841 5841
5851 5850 5850 5849 5848 5847 5846 5845 5845 5844 5844 5844 5844 5845 5845 5845 5845 5845 5845 5845 5845 5845 5845 5845 5846 5846 5846 5846 5846 5846 5845 5845 5844 5844 5843 5843 5842 5842 5841 5840 5839 5838 5837
5849 5848 5848 5847 5846 5845 5844 5843 5842 5842 5842 5842 5842 5843 5843 5843 5843 5843 5843 5843 5843 5843 5843 5844 5844 5844 5844 5844 5844 5844 5844 5843 5843 5842 5841 5841 5840 5839 5838 5837 5836 5835 5834
5847 5846 5845 5844 5843 5842 5842 5841 5840 5840 5840 5840 5840 5840 5840 5840 5841 5841 5841 5841 5842 5841 5842 5842 5842 5842 5842 5842 5842 5842 5842 5841 5840 5840 5839 5838 5837 5836 5835 5834 5833 5832 5831
5844 5843 5843 5842 5841 5839 5838 5838 5837 5837 5837 5837 5837 5838 5838 5838 5838 5838 5839 5839 5839 5839 5839 5839 5840 5840 5840 5840 5840 5839 5839 5838 5837 5837 5836 5835 5834 5833 5832 5830 5829 5828 5827
5841 5840 5840 5839 5838 5836 5836 5835 5834 5834 5834 5834 5835 5835 5835 5835 5835 5835 5836 5836 5836 5837 5837 5837 5837 5837 5837 5837 5836 5836 5835 5835 5834 5833 5832 5831 5830 5829 5828 5827 5825 5824 5823
5838 5837 5836 5835 5834 5833 5833 5832 5831 5831 5831 5831 5831 5831 5831 5831 5832 5832 5833 5833 5834 5834 5834 5834 5834 5834 5834 5833 5833 5832 5832 5831 5830 5829 5828 5828 5826 5825 5824 5823 5821 5820 5819
5835 5834 5833 5832 5831 5830 5829 5829 5828 5827 5827 5827 5827 5827 5827 5827 5828 5829 5829 5830 5830 5830 5830 5830 5830 5830 5830 5829 5829 5828 5828 5827 5826 5825 5824 5823 5822 5821 5820 5819 5817 5816 5814
5831 5830 5829 5828 5827 5826 5826 5825 5824 5824 5823 5823 5823 5823 5823 5824 5824 5825 5825 5826 5826 5826 5826 5826 5826 5825 5825 5825 5825 5824 5823 5822 5822 5821 5820 5819 5818 5817 5816 5814 5812 5811 5809
5827 5826 5825 5824 5823 5822 5822 5821 5820 5820 5819 5819 5819 5819 5819 5819 5820 5820 5821 5821 5822 5822 5822 5822 5821 5821 5821 5820 5820 5819 5818 5818 5817 5816 5815 5814 5813 5812 5810 5809 5807 5806 5804
5822 5821 5820 5819 5819 5818 5817 5817 5816 5815 5815 5814 5814 5813 5814 5815 5815 5815 5816 5816 5817 5817 5817 5817 5817 5816 5816 5815 5815 5814 5813 5813 5812 5811 5810 5809 5808 5806 5805 5803 5802 5800 5798
5817 5816 5815 5815 5814 5813 5812 5811 5811 5810 5809 5809 5808 5808 5808 5809 5809 5810 5810 5811 5811 5812 5812 5812 5812 5811 5810 5810 5809 5809 5808 5808 5807 5806 5805 5803 5802 5801 5799 5798 5796 5794 5792
5811 5811 5810 5809 5808 5807 5807 5806 5805 5804 5803 5803 5802 5802 5802 5803 5803 5804 5804 5805 5805 5806 5806 5806 5806 5805 5805 5805 5804 5803 5802 5802 5801 5800 5799 5798 5796 5795 5793 5792 5790 5788 5786
5805 5805 5804 5803 5803 5802 5801 5800 5799 5798 5797 5796 5796 5796 5796 5797 5797 5798 5798 5799 5799 5799 5799 5799 5799 5799 5799 5799 5798 5797 5796 5796 5795 5794 5793 5791 5790 5789 5787 5785 5783 5781 5779
5799 5798 5798 5797 5796 5795 5794 5793 5792 5791 5790 5790 5789 5790 5790 5790 5790 5791 5791 5792 5792 5792 5793 5793 5793 5793 5792 5792 5791 5791 5790 5789 5788 5787 5786 5785 5783 5782 5780 5778 5777 5775 5772
5792 5792 5791 5790 5790 5789 5787 5786 5785 5784 5783 5782 5782 5782 5783 5783 5783 5784 5784 5784 5785 5785 5786 5786 5786 5786 5785 5785 5784 5783 5783 5782 5781 5780 5779 5778 5777 5775 5773 5771 5769 5767 5765
5785 5784 5784 5783 5782 5781 5780 5779 5778 5777 5776 5776 5775 5775 5775 5775 5776 5776 5776 5776 5777 5777 5777 5777 5778 5777 5777 5777 5776 5776 5775 5774 5774 5773 5772 5770 5769 5767 5766 5764 5762 5760 5757